This is the latest recevied weather packets stored in our database for station/object DC4AT. If no packets are shown the sender has not sent any weather packets the latest 10 day(s).
| Time | Temp. | Humidity | Pressure | Rain* | Wind** | Luminosity | Snow |
|---|---|---|---|---|---|---|---|
| 1787396873 | 17.78° C | 67% | 1016.4 hPa | 0 mm | - | 214 W/m² | - |
| 1787396273 | 17.22° C | 68% | 1016.4 hPa | 0 mm | - | 527 W/m² | - |
| 1787395673 | 17.22° C | 70% | 1016.3 hPa | 0 mm | - | 445 W/m² | - |
| 1787395073 | 17.22° C | 74% | 1016.3 hPa | 0 mm | - | 677 W/m² | - |
| 1787394473 | 16.67° C | 74% | 1016.3 hPa | 0 mm | - | 738 W/m² | - |
| 1787393873 | 16.67° C | 75% | 1016.3 hPa | 0 mm | - | 601 W/m² | - |
| 1787393273 | 16.11° C | 76% | 1016.2 hPa | 0 mm | - | 323 W/m² | - |
| 1787392673 | 16.11° C | 76% | 1016.2 hPa | 0 mm | - | 552 W/m² | - |
| 1787392073 | 15.56° C | 79% | 1016.2 hPa | 0 mm | - | 197 W/m² | - |
| 1787391473 | 15.56° C | 82% | 1016.1 hPa | 0 mm | - | 446 W/m² | - |
| 1787390874 | 15° C | 84% | 1016 hPa | 0.51 mm | - | 459 W/m² | - |
| 1787390274 | 15° C | 85% | 1015.9 hPa | 0.51 mm | - | 596 W/m² | - |
| 1787389674 | 14.44° C | 85% | 1015.8 hPa | 0.51 mm | - | 376 W/m² | - |
| 1787389074 | 13.89° C | 85% | 1015.7 hPa | 0.51 mm | - | 221 W/m² | - |
| 1787388474 | 13.89° C | 86% | 1015.6 hPa | 0.51 mm | - | 178 W/m² | - |
| 1787387874 | 14.44° C | 85% | 1015.5 hPa | 0.51 mm | - | 107 W/m² | - |
| 1787387274 | 15.56° C | 80% | 1015.3 hPa | 0 mm | - | 58 W/m² | - |
| 1787386674 | 15.56° C | 77% | 1014.9 hPa | 0 mm | - | 98 W/m² | - |
| 1787386074 | 15.56° C | 79% | 1014.9 hPa | 0 mm | - | 169 W/m² | - |
| 1787385474 | 15° C | 81% | 1014.9 hPa | 0 mm | - | 315 W/m² | - |
| 1787384874 | 15° C | 82% | 1014.8 hPa | 0 mm | - | 97 W/m² | - |
| 1787384274 | 15° C | 83% | 1014.6 hPa | 0 mm | - | 294 W/m² | - |
| 1787383674 | 14.44° C | 85% | 1014.6 hPa | 0 mm | - | 174 W/m² | - |
| 1787383074 | 14.44° C | 85% | 1014.6 hPa | 0 mm | - | 95 W/m² | - |
| 1787382474 | 13.89° C | 86% | 1014.5 hPa | 0 mm | - | 272 W/m² | - |
* Rain latest hour (hover to see other rain measurements)
** Current wind speed in m/s (hover to see current wind gust speed)